Address 0xe59150cc54b28d55b9b1df175a3bdff10a29d1ba 4

Txn Hash Method
Block
From
To
Value [Txn Fee]
0x2d1c039f03848aaa64b4e44c931d2838607c00031cfb4a653b9ffb8232e423e1Swap Exact Token...187940592022-08-18 7:42:405 mins ago0xe59150cc54b28d55b9b1df175a3bdff10a29d1baOUT 0x9e4aabd2b3e60ee1322e94307d0776f2c8e6cfbb0 AVAX0.‍003112372 26.‍5
0xe26486dcf5967b1fed95cbea797f47e7d438a2e4a5389276398c6aa5ae5964eaSwap Exact Token...187940572022-08-18 7:42:365 mins ago0xe59150cc54b28d55b9b1df175a3bdff10a29d1baOUT Lydia Finance: Router0 AVAX0.‍003074954 26.‍5
0x77cb02e2d0bfaa90b67efd3461b6ed0acbd9f1f17dcd920dbe1dde435c73653eSwap Exact Token...187940552022-08-18 7:42:326 mins ago0xe59150cc54b28d55b9b1df175a3bdff10a29d1baOUT YetiSwap: Router0 AVAX0.‍0031629075 26.‍5
0x23d1b78aac41bdd2009e3919ee8703e8dd9e3bafc6d3d19c2a7cb63743d663e30x7c025200187940532022-08-18 7:42:256 mins ago0xe59150cc54b28d55b9b1df175a3bdff10a29d1baOUT 0xe0c38b2a8d09aad53f1c67734b9a95e43d5981c00 AVAX0.‍014964815 26.‍5
0x30c226dcc694b98c6821a84eaf802a00c8a2f750d4c8948582ecf95c23ee6446Swap Exact Token...187940502022-08-18 7:42:196 mins ago0xe59150cc54b28d55b9b1df175a3bdff10a29d1baOUT Pangolin: Router0 AVAX0.‍003517928 26.‍5
0xbdb0572db38427ce0a111558a81bd3d56db2bad33f7af6c483ab2daf5634ca42Swap Exact Token...187940482022-08-18 7:42:156 mins ago0xe59150cc54b28d55b9b1df175a3bdff10a29d1baOUT Trader Joe: Router0 AVAX0.‍0034673395 26.‍5
0x31f53d3d82d88c8fe700d245b8a1fb7a4fc4d7ca56fcdd89f6cb0a490a057d4dSwap Exact Token...187940462022-08-18 7:42:116 mins ago0xe59150cc54b28d55b9b1df175a3bdff10a29d1baOUT SushiSwap: Router0 AVAX0.‍0034289675 26.‍5
0xb0661648ce3db53e8419e708b811a77cd3e2d1f1f2f211fe31a380eca6f99c1eSwap Exact Token...187932132022-08-18 7:13:5234 mins ago0xe59150cc54b28d55b9b1df175a3bdff10a29d1baOUT 0x9e4aabd2b3e60ee1322e94307d0776f2c8e6cfbb0 AVAX0.‍0030752455 26.‍5
0x7a8438ed45c709d1b2322126677f63943f3f14532d571e2a90e47adad00e4a18Swap Exact Token...187932112022-08-18 7:13:4834 mins ago0xe59150cc54b28d55b9b1df175a3bdff10a29d1baOUT Lydia Finance: Router0 AVAX0.‍0031117625 26.‍5
0x234f602612a98030a9f2a09d9985d8ab0fea76426f302fae65c8111782828f8dSwap Exact Token...187932082022-08-18 7:13:4234 mins ago0xe59150cc54b28d55b9b1df175a3bdff10a29d1baOUT YetiSwap: Router0 AVAX0.‍0031629075 26.‍5
0x6b94a8872f498a2585dc54f180fe2a3897ba4bbcdfded30cbca8df6a16ebf835Swap Exact Token...187932052022-08-18 7:13:3634 mins ago0xe59150cc54b28d55b9b1df175a3bdff10a29d1baOUT Pangolin: Router0 AVAX0.‍003479556 26.‍5
0x84032ceb67667e3cdab388bbe3844312e5623ef4f05c1bf0e672402d1a6d66dbSwap Exact Token...187932042022-08-18 7:13:3435 mins ago0xe59150cc54b28d55b9b1df175a3bdff10a29d1baOUT Trader Joe: Router0 AVAX0.‍0034670215 26.‍5
0x3ba64115555be44f9173970914baaf7ea79965163f1964a6a87c2f9a7e9569b6Swap Exact Token...187932002022-08-18 7:13:2635 mins ago0xe59150cc54b28d55b9b1df175a3bdff10a29d1baOUT SushiSwap: Router0 AVAX0.‍0034670215 26.‍5
0xbf092594c15a6ec8371524ab76336ea23cc90ebabc1b5c3f41af70ed02939a260x7c025200187931992022-08-18 7:13:2435 mins ago0xe59150cc54b28d55b9b1df175a3bdff10a29d1baOUT 0xe0c38b2a8d09aad53f1c67734b9a95e43d5981c00 AVAX0.‍0183346875 26.‍5
0xadb79e30f249bf424cb83b51186a95949c9f1fb56bb575e86033091cfcf1ac38Swap Exact Token...187925042022-08-18 6:49:4258 mins ago0xe59150cc54b28d55b9b1df175a3bdff10a29d1baOUT 0x9e4aabd2b3e60ee1322e94307d0776f2c8e6cfbb0 AVAX0.‍003137592578 26.‍717468051
0x3c2ef27bd622c1dc530bacc3ccbbe5b0232dcb3e3df529b60e03fb72c3da19acSwap Exact Token...187925032022-08-18 6:49:3758 mins ago0xe59150cc54b28d55b9b1df175a3bdff10a29d1baOUT Lydia Finance: Router0 AVAX0.‍00312600984 26.‍94
0xdbfc6221f381386b36d576aa51c20594d49e28d52771a3e23a11b71f51488500Swap Exact Token...187925002022-08-18 6:49:3159 mins ago0xe59150cc54b28d55b9b1df175a3bdff10a29d1baOUT YetiSwap: Router0 AVAX0.‍003273639975 27.‍425
0x896464da1a69bd367bc91842dee6b79d1aa9f03be18e4618aa1711b2a387f090Swap Exact Token...187924992022-08-18 6:49:2959 mins ago0xe59150cc54b28d55b9b1df175a3bdff10a29d1baOUT Pangolin: Router0 AVAX0.‍0036010122 27.‍425
0x975d42246b497c2dab6c06ad42134e936a776095dc9cd4ae2a3699a69f62c217Swap Exact Token...187924972022-08-18 6:49:2459 mins ago0xe59150cc54b28d55b9b1df175a3bdff10a29d1baOUT Trader Joe: Router0 AVAX0.‍003548657875 27.‍425
0x6ed22fc140308b3989c945931ac0134c513db8c85451e1de8eef0c00c48b493aSwap Exact Token...187924962022-08-18 6:49:2259 mins ago0xe59150cc54b28d55b9b1df175a3bdff10a29d1baOUT SushiSwap: Router0 AVAX0.‍003502422487 26.‍77058562
0xf065f8069eab41e71643b1dcab977b805e138fa280904dfcec26024f87e4b40c0x7c025200187924952022-08-18 6:49:2159 mins ago0xe59150cc54b28d55b9b1df175a3bdff10a29d1baOUT 0xe0c38b2a8d09aad53f1c67734b9a95e43d5981c00 AVAX0.‍016439816629 26.‍77058562
0x68c0fe221eee52d6aacde40a98fff9a8137f04a491dbdec4c0c52fadf0b69df5Swap Exact Token...187916622022-08-18 6:20:521 hr 27 mins ago0xe59150cc54b28d55b9b1df175a3bdff10a29d1baOUT 0x9e4aabd2b3e60ee1322e94307d0776f2c8e6cfbb0 AVAX0.‍003112054 26.‍5
0x8c9cdee1419b8868f80cd60d7f1950a7f11f8bc26b770936b8a6a0e6df37af3fSwap Exact Token...187916612022-08-18 6:20:501 hr 27 mins ago0xe59150cc54b28d55b9b1df175a3bdff10a29d1baOUT Lydia Finance: Router0 AVAX0.‍003074954 26.‍5
0x4cca90f5dcd9bcc6574286fefdfc75465f8859837e0ee2c54126a1ad6efea0f0Swap Exact Token...187916582022-08-18 6:20:441 hr 27 mins ago0xe59150cc54b28d55b9b1df175a3bdff10a29d1baOUT YetiSwap: Router0 AVAX0.‍003201739171 26.‍825346
0x424a1968df500d88a584feb112ba97487a29eebaf89b9b5e73d748bf032132f7Swap Exact Token...187916562022-08-18 6:20:401 hr 27 mins ago0xe59150cc54b28d55b9b1df175a3bdff10a29d1baOUT Pangolin: Router0 AVAX0.‍003479556 26.‍5
[ Download CSV Export 
Parent Txn Hash Block From To Value
Loading

Contract Name:
0

Compiler Version
0

Optimization Enabled:
0

Other Settings:
-NA-
Block Transaction Gas Used Reward
Age Block Fee Address BC Fee Address Voting Power Jailed Incoming
Block Uncle Number Difficulty Gas Used Reward
Loading
Make sure to use the "Vote Down" button for any spammy posts, and the "Vote Up" for interesting conversations.